{"data":{"norad_id":67046,"intl_designator":"2025-294S","name":"STARLINK-35721","alt_names":[],"object_type":"PAYLOAD","status":"ACTIVE","operator":null,"country":"US","launch_date":"2025-12-11","launch_site_code":"AFETR","launch_vehicle":null,"mission":null,"orbit_class":"UNKNOWN","rcs_meters":null,"size_class":null,"mass_kg":null,"dimensions":null,"purposes":["comms"],"wikipedia_slug":null,"has_3d_model":false,"image_url":null,"decayed_at":null,"tle_current":{"epoch":"2026-05-24T21:47:58.562016Z","epoch_age_seconds":82724,"freshness":"FRESH","line1":"1 67046U 25294S   26144.90831669  .00018493  00000+0  67977-3 0  9997","line2":"2 67046  43.0035 327.8261 0002098 275.7148  84.3464 15.27583231 26455","mean_motion":15.27583231,"eccentricity":0.0002098,"inclination_deg":43.0035,"raan_deg":327.8261,"arg_perigee_deg":275.7148,"mean_anomaly_deg":84.3464,"bstar":0.00067977,"rev_number":2645,"period_min":94.266549329514,"perigee_km":481.59994646717,"apogee_km":484.47889609354,"semimajor_km":6861.1764212804,"source":"CELESTRAK","updated_at":"2026-05-25T13:38:21.439679Z"}}}